Location: Enborne
(51.3833°N, 1.3667°W)
Time: 19:54:34
(UTC+00:00)

ATLAS 3B R/B - Visible Passes

Search period start: 26 January 2021 00:00
Search period end: 05 February 2021 00:00
Orbit: 1013 x 1182 km, 63.8° (Epoch: 08 January)

Date Brightness Start Highest point End Pass type
(mag) Time Alt. Az. Time Alt. Az. Time Alt. Az.
26 Jan 4.8 06:41:04 10° S 06:46:35 30° ESE 06:52:13 10° ENE visible
26 Jan 6.2 17:50:39 10° W 17:53:16 12° WSW 17:55:53 10° SW visible
27 Jan 5.4 05:55:30 10° SSE 05:59:49 19° ESE 06:04:11 10° ENE visible
28 Jan 5.8 05:11:52 10° ESE 05:13:11 11° ESE 05:14:30 10° E visible
28 Jan 3.6 06:56:00 10° SSW 07:02:18 52° ESE 07:08:47 10° NE visible
29 Jan 4.4 06:09:33 10° S 06:15:20 34° ESE 06:21:14 10° NE visible
30 Jan 5.0 05:23:43 10° SSE 05:28:30 22° ESE 05:33:21 10° ENE visible
31 Jan 5.4 04:39:04 10° SE 04:41:50 13° ESE 04:44:37 10° ENE visible
31 Jan 3.3 06:24:41 10° SSW 06:31:07 59° SE 06:37:41 10° NE visible
01 Feb 4.0 05:38:06 10° S 05:44:05 39° ESE 05:50:12 10° NE visible
02 Feb 4.6 04:52:03 10° SSE 04:57:13 25° ESE 05:02:28 10° ENE visible
02 Feb 2.6 06:40:33 10° SW 06:47:08 86° NW 06:53:57 10° NE visible
03 Feb 5.1 04:06:53 10° SE 04:10:29 15° ESE 04:14:08 10° ENE visible
03 Feb 3.0 05:53:26 10° SSW 05:59:55 67° SE 06:06:36 10° NE visible
04 Feb 3.6 05:06:42 10° S 05:12:52 45° ESE 05:19:09 10° NE visible
04 Feb 2.8 06:56:57 10° WSW 07:03:26 58° NW 07:10:09 10° NE visible
